Regional Weather Roundup
Issued by NWS

Home | Current Version | Previous Version | Graphics & Text | Print | Product List | Glossary On
Versions: 1 2 3 4 5 6 7 8 9 10 11 12 13 14 15 16 17 18 19 20 21 22 23 24 25 26 27 28 29 30 31 32 33 34 35 36 37 38 39 40 41 42 43 44 45 46 47 48 49 50
000
ASUS43 KMKX 301121
RWRWI

WISCONSIN REGIONAL WEATHER ROUNDUP
NATIONAL WEATHER SERVICE MILWAUKEE/SULLIVAN WI
500 AM CST FRI JAN 30 2015

NOTE: "FAIR" INDICATES FEW OR NO CLOUDS BELOW 12,000 FEET WITH NO
SIGNIFICANT WEATHER AND/OR OBSTRUCTIONS TO VISIBILITY.

WIZ001-002-006>008-014>016-023>028-301200-
NORTHWEST WISCONSIN

CITY           SKY/WX    TMP DP  RH WIND       PRES   REMARKS
SUPERIOR ARPT  PTCLDY     0  -4  82 CALM      30.52F
ASHLAND        CLOUDY    11   4  73 W6        30.50S WCI   1
HAYWARD        PTCLDY    -1  -5  82 CALM      30.47F
SIREN          PTCLDY    -1  -4  85 CALM      30.52S
CUMBERLAND     PTCLDY     1  -2  85 CALM      30.48S
RICE LAKE      PTCLDY     0  -3  87 CALM      30.51F
CHETEK         PTCLDY     0  -3  87 CALM      30.50F
LADYSMITH      FLURRIES   8   3  81 W5        30.48F WCI  -1
EAU CLAIRE     MOCLDY     5  -2  72 CALM      30.50F
MENOMONIE      PTCLDY     6   1  77 CALM      30.52F
NEW RICHMOND   PTCLDY     4   1  86 CALM      30.52S
OSCEOLA        PTCLDY     6   3  86 CALM      30.56S
$$

WIZ003>005-009-010-017-018-301200-
NORTH CENTRAL WISCONSIN

CITY           SKY/WX    TMP DP  RH WIND       PRES   REMARKS
MANITOWISH WTR CLOUDY     9   3  76 N6        30.40S WCI   0
ARBOR VITAE    CLOUDY    11   4  74 NW7       30.40R WCI   1
WOODRUFF       CLOUDY    11   4  74 NW7       30.40R WCI   1
RHINELANDER    CLOUDY    11   3  70 NW5       30.39S WCI   3
EAGLE RIVER    CLOUDY    10   2  71 N7        30.39S WCI  -2
LAND O LAKES   CLOUDY    10   4  78 N6        30.39S WCI   0
PHILLIPS       CLOUDY    10   3  72 NW7       30.42S WCI  -1
TOMAHAWK       CLOUDY    12   4  71 CALM      30.42S
MEDFORD        CLOUDY    10   4  77 NW5       30.42F WCI   1
MERRILL        CLOUDY    13   5  69 N5        30.43S WCI   5
$$

WIZ029-030-035-036-043>047-301200-
CENTRAL WISCONSIN

CITY           SKY/WX    TMP DP  RH WIND       PRES   REMARKS
WAUSAU         CLOUDY    14   4  64 NW7       30.43R WCI   4
MOSINEE        CLOUDY    12   5  73 NW7       30.44S WCI   2
MARSHFIELD     PTCLDY     9   2  73 NW7       30.45S WCI  -2
STEVENS POINT  CLOUDY    13   2  63 NW6       30.45S WCI   4
WAUPACA        CLOUDY    19   6  58 NW7       30.46S WCI  10
WAUTOMA        MOCLDY    11   3  70 CALM      30.48R
WISC RAPIDS    CLOUDY    15   4  61 NW8       30.47S WCI   4
CAMP DOUGLAS   CLEAR      8   5  90 W7        30.49S WCI  -4
$$

WIZ011>013-019>022-031-037>040-048>050-301200-
NORTHEAST WISCONSIN

CITY           SKY/WX    TMP DP  RH WIND       PRES   REMARKS
ANTIGO         CLOUDY    11   4  72 NW8       30.40R WCI  -1
SHAWANO        CLOUDY    18   4  56 NW8       30.46R WCI   7
OCONTO         CLOUDY    15   4  62 CALM      30.47R
STURGEON BAY   PTCLDY    12   1  62 NW12      30.47R WCI  -2
GREEN BAY      CLOUDY    17   5  59 N12       30.47R WCI   4
MANITOWOC      CLOUDY    17   7  64 N9        30.46R WCI   6
APPLETON       NOT AVBL
CLINTONVILLE   CLOUDY    18   5  57 NW6       30.46R WCI   9
OSHKOSH        PTCLDY    15   4  61 NW8       30.45R WCI   4
$$

WIZ032>034-041-042-053>061-301200-
SOUTHWEST WISCONSIN

CITY           SKY/WX    TMP DP  RH WIND       PRES   REMARKS
LA CROSSE      CLEAR     11   5  77 N5        30.54S WCI   3
SPARTA         CLEAR      9   4  77 W5        30.52S WCI   1
VIROQUA        CLEAR     10   6  81 N9        30.46F WCI  -2
BOSCOBEL       CLEAR     16   6  65 N7        30.53R WCI   6
PRAIRIE DU CHI CLEAR     17   8  70 NW6       30.53R WCI   8
PLATTEVILLE    CLEAR     16   9  72 NW7       30.48R WCI   7
$$

WIZ056-057-062-063-064-067-068-301200-
SOUTH CENTRAL WISCONSIN

CITY           SKY/WX    TMP DP  RH WIND       PRES   REMARKS
REEDSBURG      CLEAR     14   6  69 NW5       30.48S WCI   7
BARABOO/DELLS  CLEAR     13   6  71 CALM      30.47S
LONE ROCK      PTCLDY    17   7  64 NW7       30.51R WCI   8
MINERAL POINT  CLEAR     18   9  68 NW6       30.46R WCI   9
MADISON        CLEAR     15   7  70 NW5       30.47R WCI   8
MIDDLETON      CLEAR     17   7  65 NW6       30.47R WCI   8
WATERTOWN      CLEAR     15   6  67 NW5       30.46R WCI   8
MONROE         CLEAR     18  10  73 N7        30.45R WCI   8
JANESVILLE     CLEAR     19  10  68 NW7       30.45R WCI  10
$$

WIZ051-052-058>065-066-070>072-301200-
SOUTHEAST WISCONSIN

CITY           SKY/WX    TMP DP  RH WIND       PRES   REMARKS
MILWAUKEE      PTCLDY    20   9  62 NW12      30.44R WCI   8
WAUKESHA       CLEAR     16   7  67 NW6       30.44R WCI   7
MILWAUKEE/TIMM CLEAR     18   9  68 NW8       30.45R WCI   7
RACINE         CLEAR     20   9  62 N9        30.45R WCI   9
BURLINGTON     PTCLDY    18   6  61 N12       30.45R WCI   5
KENOSHA        CLEAR     20   9  62 NW6       30.43R WCI  12
FOND DU LAC    CLEAR     12   2  64 NW8       30.46R WCI   0
SHEBOYGAN      MOCLDY    16   7  67 N9        30.45R WCI   4
WEST BEND      CLEAR     14   7  73 NW5       30.44R WCI   6
JUNEAU         CLEAR     13   5  68 NW5       30.46R WCI   6
$$

LSZ147-162-301200-
LAKE SUPERIOR

STATION/POSITION TIME  TEMP    WIND        PRES    WAVE
                       AIR SEA DIR/SP/G            HT/PER
                 (UTC) (F)     (DEG/KT/KT) (MB)    (FT/S)
DEVILS ISLAND    1100   12     290/  8/  9 1034.5F
PORT WING        1040   12     250/  7/ 13 1033.2F
SAXON HARBOR     1000   14      CALM  /  6 1032.5
$$

LMZ867-665-643>646-301200-
LAKE MICHIGAN

STATION/POSITION TIME  TEMP    WIND        PRES    WAVE
                       AIR SEA DIR/SP/G            HT/PER
                 (UTC) (F)     (DEG/KT/KT) (MB)    (FT/S)
NORTHPORT PIER   1009   16     310/ 18     1030.5R
SISTER BAY       1013   13     330/ 20/ 24   N/A
KEWAUNEE LAKESHO 1000   16     350/ 11/ 15 1029.8R
SHEBOYGAN LAKESH 1100   19     360/ 15/ 20 1032.5R
PORT WASHINGTON  1000   20     350/  3/  7 1031.2R
MILWAUKEE LAKESH 1100   21     320/  7/ 10   N/A
KENOSHA   LAKESH 1100   22     340/ 14/ 19 1030.5R
$$

TC  - TEMPERATURE IN CELSIUS
VSB - VISIBILITY IN STATUTE MILES
WCI - WIND CHILL INDEX
HX  - HEAT INDEX




USA.gov is the U.S. government's official web portal to all federal, state and local government web resources and services.